Home   Weather   Traralgon   Past weeks

Flag for Australia Past Weather in Traralgon, Victoria, Australia — Yesterday and Last 2 Weeks

Now
56 °F

Cool.


Feels Like: 52 °F
Forecast: 50 / 73 °F
Wind: 13 mph from Southwest

Location: Latrobe Valley Airport

Current Time: Dec 10, 2016 at 11:54:10 pm

Latest Report: Dec 10, 2016 at 10:00 pm


Visibility: N/A

Pressure: 30.22 "Hg

Humidity: 72%

Dew Point: 47 °F

Location of TraralgonLocation

Past Weather in Traralgon — Graph

°F

Traralgon Temperature Yesterday

Maximum temperature yesterday: 61 °F (at 12:00 pm)
Minimum temperature yesterday: 49 °F (at 6:00 am)
Average temperature yesterday: 55 °F

High & Low Weather Summary for the Past Weeks

 TemperatureHumidityPressure
High84 °F (Dec 4, 4:00 pm)93% (Dec 7, 6:00 am)30.23 "Hg (Dec 7, 6:00 am)
Low40 °F (Dec 7, 6:00 am)29% (Dec 7, 4:00 pm)29.41 "Hg (Dec 8, 4:00 pm)
Average60 °F71%29.92 "Hg
* Reported Nov 25 10:00 pm — Dec 10 10:00 pm, Traralgon, Weather by CustomWeather, © 2016

Note: Actual official high and low records may vary slightly from our data, if they occured in-between our weather recording intervals... More about our weather records

Advertising

Traralgon Weather History for the Previous 24 Hours

Scroll right to see more
 ConditionsComfort  
Time TempWeatherWind HumidityBarometerVisibility
10:00 pm
Sat, Dec 10
56 °FCool.13 mph72%30.22 "HgN/A
9:00 pm56 °FPassing clouds.12 mph69%30.20 "HgN/A
7:00 pm61 °FCool.17 mph61%30.17 "HgN/A
6:00 pm62 °FOvercast.18 mph59%30.16 "HgN/A
4:00 pm65 °FMild.15 mph54%30.15 "HgN/A
3:00 pm66 °FPartly sunny.16 mph49%30.17 "HgN/A
1:00 pm61 °FRefreshingly cool.14 mph57%30.21 "HgN/A
12:00 pm60 °FOvercast.12 mph60%30.21 "HgN/A
10:00 am58 °FCool.10 mph65%30.23 "HgN/A
9:00 am56 °FOvercast.10 mph70%30.23 "HgN/A
7:00 am52 °FCool.10 mph85%30.19 "HgN/A
6:00 am51 °FOvercast.8 mph85%30.17 "HgN/A
4:00 am51 °FCool.6 mph87%30.15 "HgN/A
3:00 am51 °FOvercast.8 mph86%30.15 "HgN/A
1:00 am51 °FCool.8 mph90%30.17 "HgN/A
12:00 am50 °FOvercast.8 mph91%30.17 "HgN/A
Weather by CustomWeather, © 2016

See weather overviewHow to use our weather pages